Pullman, WA

4:33 PM PDT on September 17, 2019 (GMT -0700)
Pullman-Moscow Regional

Weather History for KPUW - August, 2019

Change the Weather History Date:

Sunday, August 25, 2019

  Actual Average Record
Temperature  
Mean Temperature 64 °F 64 °F  
Max Temperature 77 °F 81 °F 100 °F (1958)
Min Temperature 50 °F 48 °F 33 °F (1980)
Degree Days  
Heating Degree Days 1 3  
Month to date heating degree days 6 45  
Since 1 June heating degree days 179 315  
Since 1 July heating degree days 47 109  
Cooling Degree Days 0 2  
Month to date cooling degree days 117 79  
Year to date cooling degree days 218 179  
Since 1 June cooling degree days 215 174  
Growing Degree Days 15 (Base 50)    
Moisture  
Dew Point 44 °F    
Average Humidity 48    
Maximum Humidity 67    
Minimum Humidity 29    
Precipitation  
Precipitation 0.00 in 0.02 in 0.37 in (1965)
Month to date precipitation 0.61 0.51  
Year to date precipitation 11.89 10.79  
Sea Level Pressure  
Sea Level Pressure 30.03 in    
Wind  
Wind Speed 10 mph (WSW)    
Max Wind Speed 21 mph    
Max Gust Speed 27 mph    
Visibility 10 miles    
Events      
T = Trace of Precipitation, MM = Missing Value Source: NWS Daily Summary

Daily Weather History Graph

Daily Weather History Graph

Search for Another Location

Airport or City:

Astronomy

Aug. 25, 2019 Rise Set
Actual Time 5:59 AM PDT 7:41 PM PDT
Civil Twilight 5:26 AM PDT 8:13 PM PDT
Nautical Twilight 4:47 AM PDT 8:52 PM PDT
Astronomical Twilight 4:05 AM PDT 9:34 PM PDT
Moon 12:25 AM PDT (8/25) 4:20 PM PDT (8/25)
Length of Visible Light 14h 46m
Length of Day
13h 42m
Waning Crescent, 28% of the Moon is Illuminated
Aug 25
Waning Crescent
Aug 30
New
Sep 5
First Quarter
Sep 13
Full
Sep 21
Last Quarter

Hourly Weather History & Observations

Time (PDT) Temp. Dew Point Humidity Pressure Visibility Wind Dir Wind Speed Gust Speed Precip Events Conditions
12:53 AM 62.1 °F 45.0 °F 53% 29.89 in 10.0 mi West 11.5 mph - N/A   Clear
1:53 AM 60.1 °F 45.0 °F 57% 29.91 in 10.0 mi SSW 5.8 mph - N/A   Clear
2:53 AM 61.0 °F 45.0 °F 56% 29.93 in 10.0 mi WSW 8.1 mph - N/A   Clear
3:53 AM 60.1 °F 45.0 °F 57% 29.94 in 10.0 mi SW 4.6 mph - N/A   Clear
4:53 AM 59.0 °F 46.9 °F 64% 29.94 in 10.0 mi SW 8.1 mph - N/A   Clear
5:53 AM 59.0 °F 46.9 °F 64% 29.96 in 10.0 mi WSW 10.4 mph - N/A   Clear
6:53 AM 59.0 °F 48.0 °F 67% 29.97 in 10.0 mi WSW 11.5 mph - N/A   Clear
7:53 AM 60.1 °F 48.0 °F 64% 30.01 in 10.0 mi WSW 10.4 mph - N/A   Partly Cloudy
8:53 AM 63.0 °F 48.9 °F 60% 30.03 in 10.0 mi WSW 11.5 mph 19.6 mph N/A   Clear
9:53 AM 64.9 °F 48.0 °F 54% 30.05 in 10.0 mi WSW 15.0 mph - N/A   Scattered Clouds
10:53 AM 69.1 °F 45.0 °F 42% 30.06 in 10.0 mi WSW 16.1 mph 21.9 mph N/A   Clear
11:53 AM 72.0 °F 42.1 °F 34% 30.06 in 10.0 mi West 15.0 mph 23.0 mph N/A   Partly Cloudy
12:53 PM 70.0 °F 43.0 °F 38% 30.06 in 10.0 mi WSW 13.8 mph - N/A   Mostly Cloudy
1:53 PM 72.0 °F 43.0 °F 35% 30.06 in 10.0 mi West 17.3 mph 24.2 mph N/A   Mostly Cloudy
2:53 PM 73.9 °F 41.0 °F 30% 30.05 in 10.0 mi West 13.8 mph 25.3 mph N/A   Partly Cloudy
3:53 PM 75.9 °F 41.0 °F 29% 30.05 in 10.0 mi WSW 19.6 mph 27.6 mph N/A   Overcast
4:53 PM 73.9 °F 39.9 °F 29% 30.05 in 10.0 mi WSW 13.8 mph 21.9 mph N/A   Partly Cloudy
5:53 PM 73.0 °F 39.9 °F 30% 30.06 in 10.0 mi West 10.4 mph - N/A   Clear
6:53 PM 71.1 °F 41.0 °F 34% 30.06 in 10.0 mi West 11.5 mph - N/A   Clear
7:53 PM 68.0 °F 42.1 °F 39% 30.08 in 10.0 mi WSW 8.1 mph - N/A   Clear
8:53 PM 64.0 °F 42.1 °F 45% 30.09 in 10.0 mi WSW 4.6 mph - N/A   Clear
9:53 PM 61.0 °F 42.1 °F 50% 30.11 in 10.0 mi SW 3.5 mph - N/A   Clear
10:53 PM 55.9 °F 41.0 °F 57% 30.11 in 10.0 mi Calm Calm - N/A   Clear
11:53 PM 52.0 °F 39.0 °F 61% 30.11 in 10.0 mi Calm Calm - N/A   Clear